Location: Newark
(27.9675°N, 86.8869°E)
Time: 05:37:55
(UTC+00:00)

A-11 Canister half - Pass Details

Date: 27 October 2019
Orbit: 1527 x 1682 km, 47.3° (Epoch: 10 November)

Event Time Altitude Azimuth Distance (km) Brightness Sun altitude
Rises 12:47:55 0° 260° (W) 4,791 13.4 -17.2°
Reaches altitude 10° 12:51:25 10° 269° (W) 3,784 12.3 -18.0°
Maximum altitude 13:00:02 37° 334° (NNW) 2,259 10.0 -19.9°
Enters shadow 13:07:49 12° 36° (NE) 3,527 10.5 -21.6°
